Year,Month,Day,Hour,Minute,Value (Times are PST for insolation in W/m^2)
2018,08,06,00,00,0.00
2018,08,06,00,01,0.00
2018,08,06,00,02,0.00
2018,08,06,00,03,0.00
2018,08,06,00,04,0.00
2018,08,06,00,05,0.00
2018,08,06,00,06,0.00
2018,08,06,00,07,0.00
2018,08,06,00,08,0.00
2018,08,06,00,09,0.00
2018,08,06,00,10,0.00
2018,08,06,00,11,0.00
2018,08,06,00,12,0.00
2018,08,06,00,13,0.00
2018,08,06,00,14,0.00
2018,08,06,00,15,0.00
2018,08,06,00,16,0.00
2018,08,06,00,17,0.00
2018,08,06,00,18,0.00
2018,08,06,00,19,0.00
2018,08,06,00,20,0.00
2018,08,06,00,21,0.00
2018,08,06,00,22,0.00
2018,08,06,00,23,0.00
2018,08,06,00,24,0.00
2018,08,06,00,25,0.00
2018,08,06,00,26,0.00
2018,08,06,00,27,0.00
2018,08,06,00,28,0.00
2018,08,06,00,29,0.00
2018,08,06,00,30,0.00
2018,08,06,00,31,0.00
2018,08,06,00,32,0.00
2018,08,06,00,33,0.00
2018,08,06,00,34,0.00
2018,08,06,00,35,0.00
2018,08,06,00,36,0.00
2018,08,06,00,37,0.00
2018,08,06,00,38,0.00
2018,08,06,00,39,0.00
2018,08,06,00,40,0.00
2018,08,06,00,41,0.00
2018,08,06,00,42,0.00
2018,08,06,00,43,0.00
2018,08,06,00,44,0.00
2018,08,06,00,45,0.00
2018,08,06,00,46,0.00
2018,08,06,00,47,0.00
2018,08,06,00,48,0.00
2018,08,06,00,49,0.00
2018,08,06,00,50,0.00
2018,08,06,00,51,0.00
2018,08,06,00,52,0.00
2018,08,06,00,53,0.00
2018,08,06,00,54,0.00
2018,08,06,00,55,0.00
2018,08,06,00,56,0.00
2018,08,06,00,57,0.00
2018,08,06,00,58,0.00
2018,08,06,00,59,0.00
2018,08,06,01,00,0.00
2018,08,06,01,01,0.00
2018,08,06,01,02,0.00
2018,08,06,01,03,0.00
2018,08,06,01,04,0.00
2018,08,06,01,05,0.00
2018,08,06,01,06,0.00
2018,08,06,01,07,0.00
2018,08,06,01,08,0.00
2018,08,06,01,09,0.00
2018,08,06,01,10,0.00
2018,08,06,01,11,0.00
2018,08,06,01,12,0.00
2018,08,06,01,13,0.00
2018,08,06,01,14,0.00
2018,08,06,01,15,0.00
2018,08,06,01,16,0.00
2018,08,06,01,17,0.00
2018,08,06,01,18,0.00
2018,08,06,01,19,0.00
2018,08,06,01,20,0.00
2018,08,06,01,21,0.00
2018,08,06,01,22,0.00
2018,08,06,01,23,0.00
2018,08,06,01,24,0.00
2018,08,06,01,25,0.00
2018,08,06,01,26,0.00
2018,08,06,01,27,0.00
2018,08,06,01,28,0.00
2018,08,06,01,29,0.00
2018,08,06,01,30,0.00
2018,08,06,01,31,0.00
2018,08,06,01,32,0.00
2018,08,06,01,33,0.00
2018,08,06,01,34,0.00
2018,08,06,01,35,0.00
2018,08,06,01,36,0.00
2018,08,06,01,37,0.00
2018,08,06,01,38,0.00
2018,08,06,01,39,0.00
2018,08,06,01,40,0.00
2018,08,06,01,41,0.00
2018,08,06,01,42,0.00
2018,08,06,01,43,0.00
2018,08,06,01,44,0.00
2018,08,06,01,45,0.00
2018,08,06,01,46,0.00
2018,08,06,01,47,0.00
2018,08,06,01,48,0.00
2018,08,06,01,49,0.00
2018,08,06,01,50,0.00
2018,08,06,01,51,0.00
2018,08,06,01,52,0.00
2018,08,06,01,53,0.00
2018,08,06,01,54,0.00
2018,08,06,01,55,0.00
2018,08,06,01,56,0.00
2018,08,06,01,57,0.00
2018,08,06,01,58,0.00
2018,08,06,01,59,0.00
2018,08,06,02,00,0.00
2018,08,06,02,01,0.00
2018,08,06,02,02,0.00
2018,08,06,02,03,0.00
2018,08,06,02,04,0.00
2018,08,06,02,05,0.00
2018,08,06,02,06,0.00
2018,08,06,02,07,0.00
2018,08,06,02,08,0.00
2018,08,06,02,09,0.00
2018,08,06,02,10,0.00
2018,08,06,02,11,0.00
2018,08,06,02,12,0.00
2018,08,06,02,13,0.00
2018,08,06,02,14,0.00
2018,08,06,02,15,0.00
2018,08,06,02,16,0.00
2018,08,06,02,17,0.00
2018,08,06,02,18,0.00
2018,08,06,02,19,0.00
2018,08,06,02,20,0.00
2018,08,06,02,21,0.00
2018,08,06,02,22,0.00
2018,08,06,02,23,0.00
2018,08,06,02,24,0.00
2018,08,06,02,25,0.00
2018,08,06,02,26,0.00
2018,08,06,02,27,0.00
2018,08,06,02,28,0.00
2018,08,06,02,29,0.00
2018,08,06,02,30,0.00
2018,08,06,02,31,0.00
2018,08,06,02,32,0.00
2018,08,06,02,33,0.00
2018,08,06,02,34,0.00
2018,08,06,02,35,0.00
2018,08,06,02,36,0.00
2018,08,06,02,37,0.00
2018,08,06,02,38,0.00
2018,08,06,02,39,0.00
2018,08,06,02,40,0.00
2018,08,06,02,41,0.00
2018,08,06,02,42,0.00
2018,08,06,02,43,0.00
2018,08,06,02,44,0.00
2018,08,06,02,45,0.00
2018,08,06,02,46,0.00
2018,08,06,02,47,0.00
2018,08,06,02,48,0.00
2018,08,06,02,49,0.00
2018,08,06,02,50,0.00
2018,08,06,02,51,0.00
2018,08,06,02,52,0.00
2018,08,06,02,53,0.00
2018,08,06,02,54,0.00
2018,08,06,02,55,0.00
2018,08,06,02,56,0.00
2018,08,06,02,57,0.00
2018,08,06,02,58,0.00
2018,08,06,02,59,0.00
2018,08,06,03,00,0.00
2018,08,06,03,01,0.00
2018,08,06,03,02,0.00
2018,08,06,03,03,0.00
2018,08,06,03,04,0.00
2018,08,06,03,05,0.00
2018,08,06,03,06,0.00
2018,08,06,03,07,0.00
2018,08,06,03,08,0.00
2018,08,06,03,09,0.00
2018,08,06,03,10,0.00
2018,08,06,03,11,0.00
2018,08,06,03,12,0.00
2018,08,06,03,13,0.00
2018,08,06,03,14,0.00
2018,08,06,03,15,0.00
2018,08,06,03,16,0.00
2018,08,06,03,17,0.00
2018,08,06,03,18,0.00
2018,08,06,03,19,0.00
2018,08,06,03,20,0.00
2018,08,06,03,21,0.00
2018,08,06,03,22,0.00
2018,08,06,03,23,0.00
2018,08,06,03,24,0.00
2018,08,06,03,25,0.00
2018,08,06,03,26,0.00
2018,08,06,03,27,0.00
2018,08,06,03,28,0.00
2018,08,06,03,29,0.00
2018,08,06,03,30,0.00
2018,08,06,03,31,0.00
2018,08,06,03,32,0.00
2018,08,06,03,33,0.00
2018,08,06,03,34,0.00
2018,08,06,03,35,0.00
2018,08,06,03,36,0.00
2018,08,06,03,37,0.00
2018,08,06,03,38,0.00
2018,08,06,03,39,0.00
2018,08,06,03,40,0.00
2018,08,06,03,41,0.00
2018,08,06,03,42,0.00
2018,08,06,03,43,0.00
2018,08,06,03,44,0.00
2018,08,06,03,45,0.00
2018,08,06,03,46,0.00
2018,08,06,03,47,0.00
2018,08,06,03,48,0.00
2018,08,06,03,49,0.00
2018,08,06,03,50,0.00
2018,08,06,03,51,0.00
2018,08,06,03,52,0.00
2018,08,06,03,53,0.00
2018,08,06,03,54,0.00
2018,08,06,03,55,0.00
2018,08,06,03,56,0.00
2018,08,06,03,57,0.00
2018,08,06,03,58,0.00
2018,08,06,03,59,0.00
2018,08,06,04,00,0.00
2018,08,06,04,01,0.00
2018,08,06,04,02,0.00
2018,08,06,04,03,0.00
2018,08,06,04,04,0.00
2018,08,06,04,05,0.00
2018,08,06,04,06,0.00
2018,08,06,04,07,0.00
2018,08,06,04,08,0.00
2018,08,06,04,09,0.00
2018,08,06,04,10,0.00
2018,08,06,04,11,0.00
2018,08,06,04,12,0.00
2018,08,06,04,13,0.00
2018,08,06,04,14,0.00
2018,08,06,04,15,0.00
2018,08,06,04,16,0.00
2018,08,06,04,17,0.00
2018,08,06,04,18,0.00
2018,08,06,04,19,0.00
2018,08,06,04,20,0.00
2018,08,06,04,21,0.00
2018,08,06,04,22,0.00
2018,08,06,04,23,0.00
2018,08,06,04,24,0.00
2018,08,06,04,25,0.00
2018,08,06,04,26,0.00
2018,08,06,04,27,0.00
2018,08,06,04,28,0.00
2018,08,06,04,29,0.00
2018,08,06,04,30,0.00
2018,08,06,04,31,0.00
2018,08,06,04,32,0.00
2018,08,06,04,33,0.00
2018,08,06,04,34,0.00
2018,08,06,04,35,0.00
2018,08,06,04,36,0.00
2018,08,06,04,37,0.00
2018,08,06,04,38,0.00
2018,08,06,04,39,0.00
2018,08,06,04,40,0.00
2018,08,06,04,41,0.00
2018,08,06,04,42,0.00
2018,08,06,04,43,0.00
2018,08,06,04,44,0.00
2018,08,06,04,45,0.00
2018,08,06,04,46,0.00
2018,08,06,04,47,0.00
2018,08,06,04,48,0.00
2018,08,06,04,49,0.00
2018,08,06,04,50,0.00
2018,08,06,04,51,0.00
2018,08,06,04,52,0.00
2018,08,06,04,53,0.00
2018,08,06,04,54,0.00
2018,08,06,04,55,0.00
2018,08,06,04,56,0.00
2018,08,06,04,57,0.00
2018,08,06,04,58,0.00
2018,08,06,04,59,0.00
2018,08,06,05,00,0.00
2018,08,06,05,01,0.00
2018,08,06,05,02,0.00
2018,08,06,05,03,0.00
2018,08,06,05,04,0.00
2018,08,06,05,05,0.00
2018,08,06,05,06,0.00
2018,08,06,05,07,0.00
2018,08,06,05,08,0.00
2018,08,06,05,09,0.00
2018,08,06,05,10,0.00
2018,08,06,05,11,0.00
2018,08,06,05,12,0.00
2018,08,06,05,13,0.00
2018,08,06,05,14,0.00
2018,08,06,05,15,0.00
2018,08,06,05,16,0.00
2018,08,06,05,17,0.00
2018,08,06,05,18,0.00
2018,08,06,05,19,0.00
2018,08,06,05,20,0.00
2018,08,06,05,21,0.00
2018,08,06,05,22,0.00
2018,08,06,05,23,0.00
2018,08,06,05,24,0.00
2018,08,06,05,25,0.00
2018,08,06,05,26,0.00
2018,08,06,05,27,0.00
2018,08,06,05,28,0.00
2018,08,06,05,29,0.00
2018,08,06,05,30,0.00
2018,08,06,05,31,0.00
2018,08,06,05,32,0.00
2018,08,06,05,33,0.00
2018,08,06,05,34,0.00
2018,08,06,05,35,0.00
2018,08,06,05,36,0.00
2018,08,06,05,37,0.00
2018,08,06,05,38,0.00
2018,08,06,05,39,0.00
2018,08,06,05,40,0.00
2018,08,06,05,41,0.00
2018,08,06,05,42,0.00
2018,08,06,05,43,0.00
2018,08,06,05,44,0.00
2018,08,06,05,45,0.00
2018,08,06,05,46,0.00
2018,08,06,05,47,0.00
2018,08,06,05,48,0.00
2018,08,06,05,49,0.00
2018,08,06,05,50,0.00
2018,08,06,05,51,0.00
2018,08,06,05,52,0.00
2018,08,06,05,53,0.00
2018,08,06,05,54,0.00
2018,08,06,05,55,0.00
2018,08,06,05,56,0.00
2018,08,06,05,57,0.00
2018,08,06,05,58,0.00
2018,08,06,05,59,0.00
2018,08,06,06,00,0.00
2018,08,06,06,01,2.20
2018,08,06,06,02,5.00
2018,08,06,06,03,5.00
2018,08,06,06,04,5.00
2018,08,06,06,05,5.00
2018,08,06,06,06,5.00
2018,08,06,06,07,5.00
2018,08,06,06,08,5.90
2018,08,06,06,09,7.00
2018,08,06,06,10,7.00
2018,08,06,06,11,7.00
2018,08,06,06,12,7.20
2018,08,06,06,13,9.00
2018,08,06,06,14,9.00
2018,08,06,06,15,9.00
2018,08,06,06,16,9.00
2018,08,06,06,17,10.50
2018,08,06,06,18,11.00
2018,08,06,06,19,11.10
2018,08,06,06,20,12.00
2018,08,06,06,21,12.00
2018,08,06,06,22,12.00
2018,08,06,06,23,13.20
2018,08,06,06,24,14.00
2018,08,06,06,25,14.00
2018,08,06,06,26,14.00
2018,08,06,06,27,14.00
2018,08,06,06,28,14.00
2018,08,06,06,29,14.00
2018,08,06,06,30,15.20
2018,08,06,06,31,16.00
2018,08,06,06,32,16.00
2018,08,06,06,33,16.00
2018,08,06,06,34,16.40
2018,08,06,06,35,18.00
2018,08,06,06,36,18.50
2018,08,06,06,37,19.00
2018,08,06,06,38,19.00
2018,08,06,06,39,19.00
2018,08,06,06,40,20.90
2018,08,06,06,41,21.00
2018,08,06,06,42,21.00
2018,08,06,06,43,21.00
2018,08,06,06,44,22.20
2018,08,06,06,45,23.00
2018,08,06,06,46,23.00
2018,08,06,06,47,23.00
2018,08,06,06,48,23.00
2018,08,06,06,49,23.00
2018,08,06,06,50,24.00
2018,08,06,06,51,25.00
2018,08,06,06,52,25.00
2018,08,06,06,53,25.00
2018,08,06,06,54,25.00
2018,08,06,06,55,25.00
2018,08,06,06,56,25.00
2018,08,06,06,57,24.10
2018,08,06,06,58,23.00
2018,08,06,06,59,24.40
2018,08,06,07,00,25.00
2018,08,06,07,01,25.10
2018,08,06,07,02,26.00
2018,08,06,07,03,26.00
2018,08,06,07,04,26.00
2018,08,06,07,05,26.00
2018,08,06,07,06,26.00
2018,08,06,07,07,26.00
2018,08,06,07,08,27.90
2018,08,06,07,09,28.40
2018,08,06,07,10,30.70
2018,08,06,07,11,32.00
2018,08,06,07,12,32.00
2018,08,06,07,13,32.70
2018,08,06,07,14,33.00
2018,08,06,07,15,33.20
2018,08,06,07,16,35.00
2018,08,06,07,17,35.70
2018,08,06,07,18,41.80
2018,08,06,07,19,59.60
2018,08,06,07,20,64.00
2018,08,06,07,21,49.40
2018,08,06,07,22,37.10
2018,08,06,07,23,35.00
2018,08,06,07,24,35.00
2018,08,06,07,25,35.00
2018,08,06,07,26,35.00
2018,08,06,07,27,35.00
2018,08,06,07,28,36.70
2018,08,06,07,29,37.00
2018,08,06,07,30,37.40
2018,08,06,07,31,39.00
2018,08,06,07,32,38.10
2018,08,06,07,33,35.80
2018,08,06,07,34,37.80
2018,08,06,07,35,37.40
2018,08,06,07,36,35.40
2018,08,06,07,37,40.60
2018,08,06,07,38,44.50
2018,08,06,07,39,39.60
2018,08,06,07,40,38.30
2018,08,06,07,41,39.00
2018,08,06,07,42,43.30
2018,08,06,07,43,46.10
2018,08,06,07,44,40.00
2018,08,06,07,45,40.00
2018,08,06,07,46,39.60
2018,08,06,07,47,36.60
2018,08,06,07,48,36.40
2018,08,06,07,49,37.00
2018,08,06,07,50,40.60
2018,08,06,07,51,46.30
2018,08,06,07,52,48.40
2018,08,06,07,53,62.30
2018,08,06,07,54,91.50
2018,08,06,07,55,152.90
2018,08,06,07,56,170.70
2018,08,06,07,57,120.20
2018,08,06,07,58,97.20
2018,08,06,07,59,64.30
2018,08,06,08,00,49.90
2018,08,06,08,01,44.80
2018,08,06,08,02,58.80
2018,08,06,08,03,76.40
2018,08,06,08,04,61.30
2018,08,06,08,05,44.70
2018,08,06,08,06,50.00
2018,08,06,08,07,57.80
2018,08,06,08,08,55.90
2018,08,06,08,09,61.40
2018,08,06,08,10,66.60
2018,08,06,08,11,87.40
2018,08,06,08,12,171.40
2018,08,06,08,13,259.30
2018,08,06,08,14,297.30
2018,08,06,08,15,306.40
2018,08,06,08,16,308.70
2018,08,06,08,17,312.40
2018,08,06,08,18,315.30
2018,08,06,08,19,318.40
2018,08,06,08,20,320.70
2018,08,06,08,21,323.40
2018,08,06,08,22,326.20
2018,08,06,08,23,329.20
2018,08,06,08,24,331.70
2018,08,06,08,25,336.10
2018,08,06,08,26,338.20
2018,08,06,08,27,340.50
2018,08,06,08,28,344.40
2018,08,06,08,29,347.20
2018,08,06,08,30,351.00
2018,08,06,08,31,352.90
2018,08,06,08,32,355.10
2018,08,06,08,33,357.70
2018,08,06,08,34,360.70
2018,08,06,08,35,363.90
2018,08,06,08,36,366.60
2018,08,06,08,37,370.00
2018,08,06,08,38,372.70
2018,08,06,08,39,374.40
2018,08,06,08,40,378.50
2018,08,06,08,41,381.00
2018,08,06,08,42,384.00
2018,08,06,08,43,386.20
2018,08,06,08,44,389.10
2018,08,06,08,45,391.70
2018,08,06,08,46,394.10
2018,08,06,08,47,396.60
2018,08,06,08,48,400.40
2018,08,06,08,49,403.50
2018,08,06,08,50,405.20
2018,08,06,08,51,409.00
2018,08,06,08,52,410.90
2018,08,06,08,53,413.20
2018,08,06,08,54,415.70
2018,08,06,08,55,418.70
2018,08,06,08,56,421.80
2018,08,06,08,57,424.60
2018,08,06,08,58,427.80
2018,08,06,08,59,430.70
2018,08,06,09,00,434.00
2018,08,06,09,01,436.40
2018,08,06,09,02,439.00
2018,08,06,09,03,442.00
2018,08,06,09,04,444.80
2018,08,06,09,05,447.50
2018,08,06,09,06,451.40
2018,08,06,09,07,454.30
2018,08,06,09,08,457.40
2018,08,06,09,09,460.00
2018,08,06,09,10,463.00
2018,08,06,09,11,466.40
2018,08,06,09,12,468.70
2018,08,06,09,13,472.40
2018,08,06,09,14,475.00
2018,08,06,09,15,476.90
2018,08,06,09,16,480.70
2018,08,06,09,17,483.40
2018,08,06,09,18,487.40
2018,08,06,09,19,489.70
2018,08,06,09,20,493.40
2018,08,06,09,21,497.20
2018,08,06,09,22,499.40
2018,08,06,09,23,502.10
2018,08,06,09,24,505.90
2018,08,06,09,25,509.20
2018,08,06,09,26,512.20
2018,08,06,09,27,514.70
2018,08,06,09,28,517.30
2018,08,06,09,29,506.40
2018,08,06,09,30,516.50
2018,08,06,09,31,519.00
2018,08,06,09,32,503.00
2018,08,06,09,33,509.00
2018,08,06,09,34,512.50
2018,08,06,09,35,508.60
2018,08,06,09,36,499.70
2018,08,06,09,37,514.30
2018,08,06,09,38,508.60
2018,08,06,09,39,490.60
2018,08,06,09,40,494.00
2018,08,06,09,41,500.70
2018,08,06,09,42,521.50
2018,08,06,09,43,549.40
2018,08,06,09,44,540.30
2018,08,06,09,45,528.90
2018,08,06,09,46,526.90
2018,08,06,09,47,530.30
2018,08,06,09,48,527.90
2018,08,06,09,49,538.60
2018,08,06,09,50,550.00
2018,08,06,09,51,546.30
2018,08,06,09,52,559.70
2018,08,06,09,53,569.80
2018,08,06,09,54,565.10
2018,08,06,09,55,568.90
2018,08,06,09,56,565.00
2018,08,06,09,57,575.00
2018,08,06,09,58,574.30
2018,08,06,09,59,569.60
2018,08,06,10,00,568.40
2018,08,06,10,01,578.40
2018,08,06,10,02,590.50
2018,08,06,10,03,591.10
2018,08,06,10,04,584.00
2018,08,06,10,05,585.90
2018,08,06,10,06,586.60
2018,08,06,10,07,588.70
2018,08,06,10,08,593.50
2018,08,06,10,09,598.20
2018,08,06,10,10,603.00
2018,08,06,10,11,604.60
2018,08,06,10,12,605.30
2018,08,06,10,13,613.40
2018,08,06,10,14,621.10
2018,08,06,10,15,627.50
2018,08,06,10,16,632.40
2018,08,06,10,17,635.00
2018,08,06,10,18,636.40
2018,08,06,10,19,638.70
2018,08,06,10,20,640.90
2018,08,06,10,21,642.60
2018,08,06,10,22,645.90
2018,08,06,10,23,649.60
2018,08,06,10,24,654.00
2018,08,06,10,25,654.40
2018,08,06,10,26,657.10
2018,08,06,10,27,660.90
2018,08,06,10,28,663.60
2018,08,06,10,29,667.00
2018,08,06,10,30,670.50
2018,08,06,10,31,671.10
2018,08,06,10,32,673.00
2018,08,06,10,33,675.00
2018,08,06,10,34,679.40
2018,08,06,10,35,682.40
2018,08,06,10,36,684.00
2018,08,06,10,37,688.30
2018,08,06,10,38,691.70
2018,08,06,10,39,689.30
2018,08,06,10,40,654.30
2018,08,06,10,41,651.40
2018,08,06,10,42,643.80
2018,08,06,10,43,658.40
2018,08,06,10,44,651.20
2018,08,06,10,45,642.30
2018,08,06,10,46,608.70
2018,08,06,10,47,489.70
2018,08,06,10,48,482.60
2018,08,06,10,49,499.60
2018,08,06,10,50,499.60
2018,08,06,10,51,529.80
2018,08,06,10,52,517.70
2018,08,06,10,53,517.00
2018,08,06,10,54,517.00
2018,08,06,10,55,517.00
2018,08,06,10,56,637.90
2018,08,06,10,57,723.10
2018,08,06,10,58,724.00
2018,08,06,10,59,727.90
2018,08,06,11,00,728.70
2018,08,06,11,01,727.50
2018,08,06,11,02,721.00
2018,08,06,11,03,721.00
2018,08,06,11,04,732.30
2018,08,06,11,05,737.00
2018,08,06,11,06,738.40
2018,08,06,11,07,742.00
2018,08,06,11,08,742.70
2018,08,06,11,09,744.50
2018,08,06,11,10,746.20
2018,08,06,11,11,747.00
2018,08,06,11,12,747.00
2018,08,06,11,13,751.80
2018,08,06,11,14,752.00
2018,08,06,11,15,754.10
2018,08,06,11,16,758.50
2018,08,06,11,17,759.00
2018,08,06,11,18,759.00
2018,08,06,11,19,764.10
2018,08,06,11,20,766.00
2018,08,06,11,21,766.40
2018,08,06,11,22,769.30
2018,08,06,11,23,771.00
2018,08,06,11,24,770.00
2018,08,06,11,25,772.10
2018,08,06,11,26,774.70
2018,08,06,11,27,776.80
2018,08,06,11,28,775.40
2018,08,06,11,29,778.00
2018,08,06,11,30,781.00
2018,08,06,11,31,784.40
2018,08,06,11,32,784.50
2018,08,06,11,33,785.70
2018,08,06,11,34,788.90
2018,08,06,11,35,789.40
2018,08,06,11,36,791.00
2018,08,06,11,37,791.90
2018,08,06,11,38,794.20
2018,08,06,11,39,795.00
2018,08,06,11,40,795.00
2018,08,06,11,41,795.10
2018,08,06,11,42,796.90
2018,08,06,11,43,799.30
2018,08,06,11,44,799.90
2018,08,06,11,45,802.00
2018,08,06,11,46,802.70
2018,08,06,11,47,804.70
2018,08,06,11,48,809.70
2018,08,06,11,49,809.00
2018,08,06,11,50,808.30
2018,08,06,11,51,811.00
2018,08,06,11,52,812.40
2018,08,06,11,53,812.80
2018,08,06,11,54,814.00
2018,08,06,11,55,816.90
2018,08,06,11,56,817.40
2018,08,06,11,57,819.00
2018,08,06,11,58,819.00
2018,08,06,11,59,820.20
2018,08,06,12,00,823.10
2018,08,06,12,01,823.10
2018,08,06,12,02,825.90
2018,08,06,12,03,826.40
2018,08,06,12,04,826.70
2018,08,06,12,05,825.90
2018,08,06,12,06,829.80
2018,08,06,12,07,830.30
2018,08,06,12,08,832.40
2018,08,06,12,09,833.10
2018,08,06,12,10,835.00
2018,08,06,12,11,836.70
2018,08,06,12,12,838.70
2018,08,06,12,13,838.70
2018,08,06,12,14,838.60
2018,08,06,12,15,841.40
2018,08,06,12,16,843.90
2018,08,06,12,17,844.40
2018,08,06,12,18,845.30
2018,08,06,12,19,845.40
2018,08,06,12,20,846.40
2018,08,06,12,21,849.70
2018,08,06,12,22,851.00
2018,08,06,12,23,851.10
2018,08,06,12,24,853.00
2018,08,06,12,25,853.30
2018,08,06,12,26,853.50
2018,08,06,12,27,853.60
2018,08,06,12,28,853.30
2018,08,06,12,29,853.90
2018,08,06,12,30,857.60
2018,08,06,12,31,857.10
2018,08,06,12,32,859.90
2018,08,06,12,33,859.00
2018,08,06,12,34,860.60
2018,08,06,12,35,862.50
2018,08,06,12,36,861.40
2018,08,06,12,37,864.90
2018,08,06,12,38,865.00
2018,08,06,12,39,865.00
2018,08,06,12,40,865.00
2018,08,06,12,41,866.20
2018,08,06,12,42,867.00
2018,08,06,12,43,867.00
2018,08,06,12,44,865.10
2018,08,06,12,45,865.40
2018,08,06,12,46,866.30
2018,08,06,12,47,865.00
2018,08,06,12,48,865.00
2018,08,06,12,49,866.40
2018,08,06,12,50,867.90
2018,08,06,12,51,863.50
2018,08,06,12,52,867.00
2018,08,06,12,53,867.30
2018,08,06,12,54,867.50
2018,08,06,12,55,867.60
2018,08,06,12,56,869.40
2018,08,06,12,57,868.30
2018,08,06,12,58,869.70
2018,08,06,12,59,867.80
2018,08,06,13,00,867.30
2018,08,06,13,01,868.90
2018,08,06,13,02,868.80
2018,08,06,13,03,869.40
2018,08,06,13,04,870.00
2018,08,06,13,05,868.00
2018,08,06,13,06,867.20
2018,08,06,13,07,869.30
2018,08,06,13,08,870.20
2018,08,06,13,09,867.40
2018,08,06,13,10,869.10
2018,08,06,13,11,867.40
2018,08,06,13,12,867.10
2018,08,06,13,13,867.80
2018,08,06,13,14,867.00
2018,08,06,13,15,868.30
2018,08,06,13,16,870.00
2018,08,06,13,17,868.60
2018,08,06,13,18,868.00
2018,08,06,13,19,865.30
2018,08,06,13,20,867.80
2018,08,06,13,21,867.00
2018,08,06,13,22,865.20
2018,08,06,13,23,864.20
2018,08,06,13,24,865.00
2018,08,06,13,25,866.60
2018,08,06,13,26,867.00
2018,08,06,13,27,866.60
2018,08,06,13,28,864.30
2018,08,06,13,29,863.90
2018,08,06,13,30,863.80
2018,08,06,13,31,864.40
2018,08,06,13,32,865.00
2018,08,06,13,33,860.40
2018,08,06,13,34,863.00
2018,08,06,13,35,862.30
2018,08,06,13,36,861.00
2018,08,06,13,37,861.00
2018,08,06,13,38,861.00
2018,08,06,13,39,861.00
2018,08,06,13,40,857.80
2018,08,06,13,41,856.90
2018,08,06,13,42,859.30
2018,08,06,13,43,859.00
2018,08,06,13,44,858.80
2018,08,06,13,45,859.50
2018,08,06,13,46,856.60
2018,08,06,13,47,857.90
2018,08,06,13,48,857.60
2018,08,06,13,49,856.00
2018,08,06,13,50,855.00
2018,08,06,13,51,855.20
2018,08,06,13,52,856.00
2018,08,06,13,53,856.00
2018,08,06,13,54,856.00
2018,08,06,13,55,855.60
2018,08,06,13,56,852.90
2018,08,06,13,57,852.40
2018,08,06,13,58,853.40
2018,08,06,13,59,853.00
2018,08,06,14,00,853.90
2018,08,06,14,01,850.90
2018,08,06,14,02,849.40
2018,08,06,14,03,851.00
2018,08,06,14,04,851.00
2018,08,06,14,05,851.00
2018,08,06,14,06,849.60
2018,08,06,14,07,849.00
2018,08,06,14,08,847.10
2018,08,06,14,09,847.00
2018,08,06,14,10,847.70
2018,08,06,14,11,847.60
2018,08,06,14,12,846.00
2018,08,06,14,13,846.00
2018,08,06,14,14,844.40
2018,08,06,14,15,843.90
2018,08,06,14,16,842.00
2018,08,06,14,17,841.30
2018,08,06,14,18,839.10
2018,08,06,14,19,838.00
2018,08,06,14,20,839.40
2018,08,06,14,21,838.30
2018,08,06,14,22,836.80
2018,08,06,14,23,835.00
2018,08,06,14,24,835.00
2018,08,06,14,25,834.10
2018,08,06,14,26,833.00
2018,08,06,14,27,833.00
2018,08,06,14,28,831.40
2018,08,06,14,29,832.60
2018,08,06,14,30,830.20
2018,08,06,14,31,830.60
2018,08,06,14,32,828.10
2018,08,06,14,33,824.80
2018,08,06,14,34,825.50
2018,08,06,14,35,826.00
2018,08,06,14,36,824.10
2018,08,06,14,37,824.00
2018,08,06,14,38,822.30
2018,08,06,14,39,820.90
2018,08,06,14,40,821.80
2018,08,06,14,41,819.50
2018,08,06,14,42,819.00
2018,08,06,14,43,817.00
2018,08,06,14,44,816.00
2018,08,06,14,45,814.70
2018,08,06,14,46,813.00
2018,08,06,14,47,811.60
2018,08,06,14,48,810.00
2018,08,06,14,49,810.00
2018,08,06,14,50,809.70
2018,08,06,14,51,807.00
2018,08,06,14,52,807.00
2018,08,06,14,53,807.00
2018,08,06,14,54,804.60
2018,08,06,14,55,803.00
2018,08,06,14,56,802.20
2018,08,06,14,57,802.00
2018,08,06,14,58,801.30
2018,08,06,14,59,797.30
2018,08,06,15,00,796.00
2018,08,06,15,01,795.40
2018,08,06,15,02,792.20
2018,08,06,15,03,792.60
2018,08,06,15,04,790.80
2018,08,06,15,05,789.00
2018,08,06,15,06,787.30
2018,08,06,15,07,784.90
2018,08,06,15,08,783.60
2018,08,06,15,09,780.60
2018,08,06,15,10,783.30
2018,08,06,15,11,779.00
2018,08,06,15,12,776.60
2018,08,06,15,13,774.30
2018,08,06,15,14,773.00
2018,08,06,15,15,772.40
2018,08,06,15,16,770.50
2018,08,06,15,17,768.30
2018,08,06,15,18,763.30
2018,08,06,15,19,765.80
2018,08,06,15,20,764.30
2018,08,06,15,21,762.10
2018,08,06,15,22,759.80
2018,08,06,15,23,758.30
2018,08,06,15,24,758.00
2018,08,06,15,25,754.10
2018,08,06,15,26,753.60
2018,08,06,15,27,751.70
2018,08,06,15,28,751.00
2018,08,06,15,29,749.80
2018,08,06,15,30,746.00
2018,08,06,15,31,745.00
2018,08,06,15,32,742.00
2018,08,06,15,33,741.60
2018,08,06,15,34,740.00
2018,08,06,15,35,739.00
2018,08,06,15,36,737.40
2018,08,06,15,37,735.60
2018,08,06,15,38,733.30
2018,08,06,15,39,730.90
2018,08,06,15,40,728.80
2018,08,06,15,41,728.00
2018,08,06,15,42,726.20
2018,08,06,15,43,722.80
2018,08,06,15,44,721.30
2018,08,06,15,45,719.40
2018,08,06,15,46,718.60
2018,08,06,15,47,714.20
2018,08,06,15,48,714.00
2018,08,06,15,49,712.90
2018,08,06,15,50,711.60
2018,08,06,15,51,707.90
2018,08,06,15,52,707.00
2018,08,06,15,53,704.80
2018,08,06,15,54,700.30
2018,08,06,15,55,698.00
2018,08,06,15,56,697.10
2018,08,06,15,57,696.00
2018,08,06,15,58,693.90
2018,08,06,15,59,693.00
2018,08,06,16,00,690.80
2018,08,06,16,01,687.00
2018,08,06,16,02,686.70
2018,08,06,16,03,684.10
2018,08,06,16,04,682.00
2018,08,06,16,05,679.80
2018,08,06,16,06,677.30
2018,08,06,16,07,672.90
2018,08,06,16,08,669.90
2018,08,06,16,09,666.00
2018,08,06,16,10,665.10
2018,08,06,16,11,663.40
2018,08,06,16,12,663.00
2018,08,06,16,13,658.10
2018,08,06,16,14,655.80
2018,08,06,16,15,653.60
2018,08,06,16,16,652.00
2018,08,06,16,17,650.60
2018,08,06,16,18,649.00
2018,08,06,16,19,646.00
2018,08,06,16,20,643.30
2018,08,06,16,21,642.00
2018,08,06,16,22,640.70
2018,08,06,16,23,635.70
2018,08,06,16,24,632.10
2018,08,06,16,25,630.20
2018,08,06,16,26,629.50
2018,08,06,16,27,628.10
2018,08,06,16,28,623.90
2018,08,06,16,29,622.00
2018,08,06,16,30,622.00
2018,08,06,16,31,620.60
2018,08,06,16,32,617.80
2018,08,06,16,33,615.60
2018,08,06,16,34,613.30
2018,08,06,16,35,611.60
2018,08,06,16,36,607.60
2018,08,06,16,37,605.70
2018,08,06,16,38,603.10
2018,08,06,16,39,602.20
2018,08,06,16,40,600.00
2018,08,06,16,41,598.10
2018,08,06,16,42,593.80
2018,08,06,16,43,591.00
2018,08,06,16,44,589.70
2018,08,06,16,45,585.60
2018,08,06,16,46,584.00
2018,08,06,16,47,581.00
2018,08,06,16,48,580.00
2018,08,06,16,49,577.70
2018,08,06,16,50,574.60
2018,08,06,16,51,572.40
2018,08,06,16,52,570.60
2018,08,06,16,53,568.80
2018,08,06,16,54,566.60
2018,08,06,16,55,564.40
2018,08,06,16,56,561.00
2018,08,06,16,57,558.60
2018,08,06,16,58,556.30
2018,08,06,16,59,553.70
2018,08,06,17,00,552.00
2018,08,06,17,01,549.00
2018,08,06,17,02,547.10
2018,08,06,17,03,544.90
2018,08,06,17,04,541.90
2018,08,06,17,05,537.30
2018,08,06,17,06,535.00
2018,08,06,17,07,533.40
2018,08,06,17,08,531.60
2018,08,06,17,09,529.30
2018,08,06,17,10,526.10
2018,08,06,17,11,525.10
2018,08,06,17,12,521.00